Weather observations for the past three days for
College Park Airport
Imperial (Metric)
Date Time (edt) Wind (mph) Vis. (mi.) Weather Sky Cond. Temperature (ºF) Relative Humidity Wind Chill (°F) Heat Index (°F) Pressure Precipitation (in)
Air Dwpt 6 hour altimeter (in) sea level (mb) 1 hr 3 hr 6 hr
Max. Min.
16 12:30 S 9 10.00 Fair CLR 99.7 68.2 36% 106 29.85 0.0
16 12:10 SW 8 10.00 Fair CLR 99.3 68.2 36% 105 29.85 0.0
16 11:50 S 6 G 16 10.00 Fair CLR 98.1 68.7 39% 104 29.85 0.0
16 11:30 SW 8 10.00 Fair CLR 97 69.1 40% 103 29.85 0.0
16 11:05 S 7 10.00 Fair CLR 95.5 70 44% 102 29.86 0.0
16 10:50 S 7 10.00 Fair CLR 95 70.3 45% 102 29.86 0.0
16 10:30 S 6 10.00 Fair CLR 93.4 71.2 49% 101 29.86 0.0
16 10:10 SW 5 10.00 Fair CLR 91.9 70.7 50% 98 29.86 0.0
16 09:50 S 6 10.00 Fair CLR 90.1 72.1 56% 98 29.86 0.0
16 09:25 S 6 10.00 Fair CLR 89.1 72.3 58% 96 29.86 0.0
16 09:05 SW 5 10.00 Fair CLR 87.6 73 62% 95 29.87 0.0
16 08:45 S 5 10.00 Fair CLR 86 72.9 65% 93 29.88 0.0
16 08:25 Calm 10.00 Fair CLR 84.9 73 68% 92 29.88 0.0
16 08:05 SW 3 10.00 Fair CLR 83.8 73 70% 90 29.88 0.0
16 07:45 Calm 10.00 Fair CLR 82.2 73.2 83.5 75 74% 88 29.88 0.0
16 07:25 Calm 10.00 Fair CLR 81.7 72.9 75% 87 29.88 0.0
16 07:05 Calm 10.00 Fair CLR 77.7 73 86% 80 29.87 0.0
16 06:45 Calm 10.00 Fair CLR 77 72.5 86% 78 29.86 0.0
16 06:25 Calm 10.00 Fair CLR 79 72 79% 82 29.86 0.0
16 06:05 S 3 10.00 Fair CLR 76.8 71.8 85% 78 29.86 0.0
16 05:45 Calm 10.00 Fair CLR 76.3 71.6 86% 77 29.85 0.0
16 05:25 Calm 10.00 Fair CLR 76.6 71.6 84% 78 29.85 0.0
16 05:05 Calm 10.00 Fair CLR 75.6 71.4 87% 76 29.85 0.0
16 04:45 Calm 10.00 Fair CLR 77.5 71.2 81% 79 29.85 0.0
16 04:25 SE 3 10.00 Fair CLR 78.4 71.6 80% 81 29.85 0.0
16 04:05 Calm 10.00 Fair CLR 76.3 71.4 85% 77 29.84 0.0
16 03:25 Calm 10.00 Fair CLR 77.7 71.4 81% 80 29.83 0.0
16 03:05 Calm 10.00 Fair CLR 81.1 71.2 72% 85 29.83 0.0
16 02:45 SW 5 10.00 Fair CLR 82.6 70.9 68% 87 29.82 0.0
16 02:25 Calm 10.00 Fair CLR 82.2 70.9 69% 87 29.82 0.0
16 02:05 Calm 10.00 Fair CLR 83.1 70.9 67% 88 29.82 0.0
16 01:45 Calm 10.00 Fair CLR 83.5 70.7 85.6 76.8 65% 88 29.82 0.0
16 01:25 S 3 10.00 Fair CLR 80.1 71.4 75% 84 29.82 0.0
16 01:05 Calm 10.00 Fair CLR 78.4 71.2 79% 81 29.83 0.0
16 00:45 Calm 10.00 Fair CLR 77.2 71.4 82% 79 29.83 0.0
16 00:25 Calm 10.00 Fair CLR 77.4 72 84% 79 29.83 0.0
16 00:05 Calm 10.00 Fair CLR 77.7 72 83% 80 29.84 0.0
15 23:45 Calm 10.00 Fair CLR 78.1 73 85% 81 29.84 0.0
15 23:05 Calm 10.00 Fair CLR 78.6 73.4 84% 82 29.85 0.0
15 22:45 Calm 10.00 Fair CLR 78.6 74.7 88% 82 29.86 0.0
15 22:25 Calm 10.00 Fair CLR 79 74.1 85% 83 29.86 0.0
15 22:05 Calm 10.00 Fair CLR 79.7 74.7 85% 84 29.86 0.0
15 21:45 Calm 10.00 Fair CLR 80.2 74.8 84% 85 29.86 0.0
15 21:30 Calm 10.00 Fair CLR 80.1 75.4 86% 85 29.86 0.0
15 21:05 Calm 10.00 Fair CLR 80.1 75.2 85% 85 29.85 0.0
15 20:45 Calm 10.00 Fair CLR 80.4 75.2 84% 86 29.84 0.0
15 20:25 Calm 10.00 Fair CLR 81.3 75.6 83% 88 29.84 0.0
15 20:05 Calm 10.00 Fair CLR 81.9 75.7 82% 89 29.83 0.0
15 19:45 Calm 10.00 Fair CLR 86 73.6 101.7 78.8 67% 94 29.82 0.0 0.02
15 19:25 Calm 10.00 Fair CLR 83.7 75.2 76% 92 29.82 0.0
15 19:05 S 5 10.00 Fair CLR 83.5 72.5 70% 89 29.83 0.0
15 18:45 SE 3 10.00 Fair CLR 81.5 73.2 76% 87 29.84 0.0 0.02
15 18:25 S 3 10.00 Light Rain BKN110 80.4 70.2 71% 84 29.84 0.0 0.02
15 18:05 W 14 G 26 5.00 Rain SCT070 OVC110 81 71.6 73% 85 29.87 0.0
15 17:45 SW 8 7.00 Mostly Cloudy BKN070 BKN090 96.3 68.4 40% 102 29.85 0.0
15 17:25 SW 6 10.00 Partly Cloudy SCT080 SCT090 97.3 67.3 37% 102 29.83 0.0
15 17:05 S 9 10.00 Partly Cloudy SCT070 99.5 67.5 35% 105 29.82 0.0
15 16:45 S 14 G 17 10.00 Partly Cloudy SCT070 99.5 66.7 34% 104 29.83 0.0
15 16:25 SW 8 10.00 Fair CLR 100.9 66.9 33% 106 29.83 0.0
15 16:05 S 6 10.00 Fair CLR 99.7 66 33% 104 29.84 0.0
15 15:45 SW 6 7.00 Fair with Haze CLR 99.1 65.1 33% 103 29.86 0.0
15 15:25 NW 7 10.00 Partly Cloudy SCT070 SCT080 99.3 65.7 33% 103 29.87 0.0
15 15:05 SW 6 10.00 Partly Cloudy SCT070 SCT080 98.4 66.4 35% 103 29.88 0.0
15 14:45 SW 7 10.00 Partly Cloudy SCT070 SCT080 97.3 66.7 37% 102 29.89 0.0
15 14:25 W 5 10.00 Partly Cloudy SCT070 98.2 66.4 35% 102 29.89 0.0
15 14:05 N 3 10.00 Partly Cloudy SCT070 97 66.2 37% 101 29.89 0.0
15 13:45 W 9 10.00 Fair CLR 97.3 65.3 97.9 83.7 35% 100 29.9 0.0
15 13:10 NW 8 10.00 Fair CLR 95.5 67.6 40% 100 29.92 0.0
15 12:50 N 12 10.00 Fair CLR 95 67.3 40% 99 29.92 0.0
15 12:30 NW 10 10.00 Fair CLR 95.2 67.3 40% 99 29.93 0.0
15 12:10 W 12 10.00 Fair CLR 94.5 67.6 42% 99 29.94 0.0
15 11:50 NW 13 10.00 Fair CLR 93.7 66.6 41% 97 29.94 0.0
15 11:25 W 12 10.00 Fair CLR 94.1 67.1 41% 98 29.94 0.0
15 11:05 NW 12 G 17 10.00 Fair CLR 92.8 67.6 44% 97 29.95 0.0
15 10:45 NW 8 10.00 Fair CLR 91.2 67.1 45% 95 29.95 0.0
15 10:25 NW 12 10.00 Fair CLR 91.2 67.1 45% 95 29.95 0.0
15 10:05 W 13 10.00 Fair CLR 89.6 67.5 48% 93 29.96 0.0
15 09:45 NW 7 G 16 10.00 Fair CLR 90.1 67.5 47% 94 29.96 0.0
15 09:30 NW 10 10.00 Fair CLR 89.1 67.3 49% 92 29.96 0.0
15 09:05 NW 6 10.00 Fair CLR 87.4 66.7 50% 90 29.96 0.0
15 08:45 NW 5 10.00 Fair CLR 87.6 66.9 50% 91 29.96 0.0
15 08:25 NW 7 10.00 Fair CLR 86.2 66.4 52% 89 29.96 0.0
15 08:05 N 5 10.00 Partly Cloudy SCT120 84.6 66.7 55% 87 29.95 0.0
15 07:45 Calm 10.00 Fair CLR 84.2 67.3 84.4 76.8 57% 87 29.96 0.0
15 07:25 NW 5 10.00 Fair CLR 82.8 67.5 60% 86 29.95 0.0
15 07:05 Calm 10.00 Fair CLR 81.5 68.2 64% 84 29.95 0.0
15 06:45 W 3 10.00 Partly Cloudy SCT090 81.1 68.4 65% 84 29.95 0.0
15 06:25 W 6 10.00 Partly Cloudy SCT090 81.5 68.7 65% 85 29.94 0.0
15 06:05 W 3 10.00 Mostly Cloudy BKN090 81.3 70.3 69% 85 29.94 0.0
15 05:45 Calm 10.00 Partly Cloudy SCT090 80.8 71.6 74% 85 29.93 0.0
15 05:25 Calm 10.00 Partly Cloudy SCT090 80.8 71.8 74% 85 29.92 0.0
15 05:05 Calm 10.00 Partly Cloudy SCT090 79.7 72 77% 83 29.92 0.0
15 04:45 Calm 7.00 Mostly Cloudy BKN090 81.5 71.8 72% 86 29.91 0.0
15 04:25 Calm 10.00 Partly Cloudy SCT090 77.4 74.1 90% 79 29.91 0.0
15 04:05 Calm 10.00 Fair CLR 77 74.3 91% 78 29.91 0.0
15 03:45 Calm 10.00 Partly Cloudy SCT090 78.1 74.5 89% 81 29.9 0.0
15 03:25 Calm 10.00 Mostly Cloudy BKN090 78.1 74.5 89% 81 29.9 0.0
15 03:05 Calm 10.00 Partly Cloudy SCT090 78.1 74.3 88% 81 29.9 0.0
15 02:45 Calm 10.00 Fair CLR 77.7 74.3 89% 80 29.9 0.0
15 02:25 Calm 10.00 Fair CLR 78.4 74.7 88% 81 29.9 0.0
15 02:05 Calm 10.00 Fair CLR 78.4 74.5 88% 81 29.91 0.0
15 01:45 Calm 10.00 Fair CLR 79.2 74.7 89.8 78.6 86% 83 29.91 0.0
15 01:25 Calm 10.00 Fair CLR 79 74.5 86% 83 29.92 0.0
15 01:05 Calm 10.00 Fair CLR 80.1 74.5 83% 85 29.92 0.0
15 00:45 Calm 10.00 Fair CLR 81 74.5 81% 86 29.92 0.0
15 00:25 Calm 10.00 Partly Cloudy SCT100 80.2 74.5 83% 85 29.92 0.0
15 00:05 Calm 10.00 Overcast OVC100 80.2 74.3 82% 85 29.93 0.0
14 23:45 Calm 10.00 Overcast OVC100 80.4 74.5 82% 85 29.94 0.0
14 23:25 Calm 10.00 Mostly Cloudy BKN100 80.2 74.5 83% 85 29.94 0.0
14 23:05 Calm 10.00 Fair CLR 79.9 74.5 84% 84 29.93 0.0
14 22:45 Calm 10.00 Fair CLR 81.1 74.5 80% 87 29.93 0.0
14 22:25 Calm 10.00 Fair CLR 80.6 74.1 81% 86 29.94 0.0
14 22:05 Calm 10.00 Fair CLR 82.2 74.1 77% 88 29.94 0.0
14 21:45 Calm 10.00 Fair CLR 83.1 73.9 74% 90 29.94 0.0
14 21:25 Calm 10.00 Fair CLR 83.8 73.8 72% 91 29.95 0.0
14 21:05 Calm 10.00 Fair CLR 85.1 73.6 69% 92 29.95 0.0
14 20:45 SE 5 10.00 Fair CLR 87.1 73.4 64% 95 29.95 0.0
14 20:25 SE 5 10.00 Fair CLR 87.8 73.2 62% 96 29.95 0.0
14 20:05 SE 7 10.00 Fair CLR 88.9 72.9 59% 97 29.95 0.0
14 19:45 SE 7 10.00 Fair CLR 90 73.2 98.8 89.8 58% 98 29.95 0.0
14 19:25 SE 8 10.00 Fair CLR 90.5 72.9 56% 99 29.95 0.0
14 19:05 SE 8 10.00 Fair CLR 91.8 71.8 52% 99 29.95 0.0
14 18:45 SE 6 10.00 Fair CLR 92.1 71.8 52% 100 29.95 0.0
14 18:25 SE 7 10.00 Fair CLR 92.1 72.7 53% 101 29.95 0.0
14 18:05 SE 7 10.00 Fair CLR 91.8 72.5 53% 100 29.95 0.0
14 17:45 SE 9 10.00 Partly Cloudy SCT075 92.5 71.8 51% 100 29.95 0.0
14 17:25 E 7 G 17 10.00 Partly Cloudy SCT075 92.1 71.6 51% 99 29.95 0.0
14 17:05 E 8 10.00 Fair CLR 93.2 71.4 49% 101 29.95 0.0
14 16:45 W 7 10.00 Fair CLR 97.2 65.7 36% 101 29.95 0.0
14 16:25 S 6 10.00 Fair CLR 95.9 66.4 38% 100 29.95 0.0
14 16:05 SW 6 10.00 Fair CLR 96.4 65.5 36% 100 29.96 0.0
14 15:50 SW 7 10.00 Fair CLR 96.1 65.1 36% 99 29.96 0.0
14 15:25 SW 14 G 22 10.00 Fair CLR 95.9 66.7 38% 100 29.97 0.0
14 15:05 W 9 G 17 10.00 Partly Cloudy SCT065 SCT080 97.7 66.2 36% 102 29.97 0.0
14 14:45 SW 7 10.00 Partly Cloudy SCT065 SCT075 97.3 67.5 38% 102 29.98 0.0
14 14:25 NW 8 10.00 Mostly Cloudy SCT065 BKN085 BKN100 96.3 67.1 39% 101 29.99 0.0
14 14:05 W 5 10.00 Mostly Cloudy SCT047 SCT060 BKN085 94.5 67.1 41% 98 30 0.0
14 13:45 SW 6 10.00 Partly Cloudy SCT085 SCT100 94.6 65.5 99 80.1 38% 97 30.01 0.0
14 13:25 SW 8 10.00 Partly Cloudy SCT055 96.4 66.4 37% 100 30.01 0.0
14 13:10 SW 7 10.00 Partly Cloudy SCT055 97.5 67.5 38% 102 30.02 0.0
14 12:45 NW 7 10.00 Partly Cloudy SCT070 SCT090 93.7 68.9 44% 99 30.03 0.0
14 12:25 W 9 10.00 Partly Cloudy SCT070 SCT080 94.6 68.5 43% 100 30.04 0.0
14 12:05 NW 12 10.00 Partly Cloudy SCT050 92.7 68.7 46% 98 30.04 0.0
14 11:45 W 5 10.00 Fair CLR 94.3 69.8 45% 100 30.04 0.0
14 11:25 W 5 10.00 Fair CLR 92.8 68.9 46% 98 30.05 0.0
14 11:10 N 6 10.00 Fair CLR 92.3 68.2 45% 97 30.05 0.0
14 10:50 Calm 10.00 Partly Cloudy SCT090 91.9 69.4 48% 97 30.05 0.0
14 10:30 W 3 10.00 Partly Cloudy SCT090 91 71.8 53% 98 30.05 0.0
14 10:10 S 3 10.00 Partly Cloudy SCT090 89.4 72.5 58% 97 30.06 0.0
14 09:50 S 3 10.00 Mostly Cloudy BKN090 88.3 72 58% 95 30.06 0.0
14 09:25 SW 5 10.00 Partly Cloudy SCT090 87.8 72 59% 94 30.06 0.0
14 09:05 SW 6 10.00 Fair CLR 87.4 72.7 62% 95 30.06 0.0
14 08:45 Calm 10.00 Fair CLR 85.5 75 71% 94 30.06 0.0
14 08:25 Calm 10.00 Fair CLR 83.8 75.4 76% 92 30.06 0.0
14 08:05 Calm 10.00 Fair CLR 81.1 75.2 82% 87 30.06 0.0
14 07:45 Calm 10.00 Fair CLR 79.5 74.5 79.5 72.7 85% 84 30.07 0.0
14 07:25 Calm 10.00 Fair CLR 77 73.8 90% 78 30.06 0.0
14 07:05 Calm 10.00 Fair CLR 74.8 72.7 93% 30.06 0.0
14 06:45 Calm 10.00 Fair CLR 73.8 72.3 95% 30.06 0.0
14 06:25 Calm 10.00 Fair CLR 73.2 72 96% 30.06 0.0
14 06:05 Calm 10.00 Fair CLR 73 72 96% 30.06 0.0
14 05:45 Calm 10.00 Fair CLR 73.4 72.1 96% 30.06 0.0
14 05:25 Calm 10.00 Fair CLR 73.6 72.1 95% 30.06 0.0
14 05:05 Calm 10.00 Fair CLR 74.1 72.5 95% 30.06 0.0
14 04:45 Calm 10.00 Fair CLR 74.1 72.5 95% 30.07 0.0
14 04:25 Calm 10.00 Fair CLR 74.1 72.7 95% 30.07 0.0
14 04:05 Calm 10.00 Fair CLR 74.3 72.3 94% 30.06 0.0
14 03:45 Calm 10.00 Fair CLR 74.8 72.1 91% 30.06 0.0
14 03:25 Calm 10.00 Fair CLR 75.2 72.5 91% 74 30.06 0.0
14 03:05 Calm 10.00 Fair CLR 75.4 72.7 91% 75 30.07 0.0
14 02:45 Calm 10.00 Fair CLR 75.4 72.5 91% 75 30.07 0.0
14 02:25 Calm 10.00 Fair CLR 76.5 72.5 88% 77 30.07 0.0
14 02:05 Calm 10.00 Fair CLR 76.1 72.3 88% 76 30.08 0.0
14 01:45 Calm 10.00 Fair CLR 77.2 72.3 87.4 76.3 85% 79 30.08 0.0
14 01:25 Calm 10.00 Fair CLR 76.8 72.1 86% 78 30.09 0.0
14 01:05 Calm 10.00 Fair CLR 76.8 72.3 86% 78 30.09 0.0
14 00:45 Calm 10.00 Partly Cloudy SCT110 76.8 72 85% 78 30.09 0.0
14 00:25 Calm 10.00 Mostly Cloudy BKN120 76.8 72 85% 78 30.09 0.0
14 00:05 Calm 10.00 Fair CLR 77.2 71.8 84% 79 30.09 0.0
13 23:45 Calm 10.00 Fair CLR 77.7 72 83% 80 30.09 0.0
13 23:25 Calm 10.00 Partly Cloudy SCT120 78.1 72 82% 80 30.1 0.0
13 23:05 Calm 10.00 Partly Cloudy SCT120 78.4 71.8 80% 81 30.1 0.0
13 22:45 Calm 10.00 Fair CLR 79 71.8 79% 82 30.1 0.0
13 22:25 Calm 10.00 Fair CLR 79 72 79% 82 30.1 0.0
13 22:05 Calm 10.00 Fair CLR 80.1 71.8 76% 84 30.1 0.0
13 21:45 Calm 10.00 Fair CLR 81 71.4 73% 85 30.1 0.0
13 21:25 Calm 10.00 Fair CLR 82.2 71.2 69% 87 30.1 0.0
13 21:05 Calm 10.00 Fair CLR 84.2 70.7 64% 89 30.09 0.0
13 20:45 Calm 10.00 Fair CLR 84.6 71.4 65% 90 30.09 0.0
13 20:25 SE 5 10.00 Fair CLR 86.2 71.2 61% 92 30.09 0.0
13 20:05 SE 5 10.00 Fair CLR 86.9 72.1 62% 94 30.08 0.0
13 19:45 SE 7 10.00 Fair CLR 87.4 73.2 93.9 87.3 63% 95 30.08 0.0
13 19:25 SE 8 10.00 Fair CLR 88.7 73.6 61% 97 30.08 0.0
13 19:05 E 9 10.00 Fair CLR 90.5 73 57% 99 30.07 0.0
13 18:45 E 8 10.00 Mostly Cloudy BKN060 92.7 67.6 44% 97 30.07 0.0
13 18:25 SE 3 10.00 Mostly Cloudy BKN060 92.5 69.6 47% 98 30.06 0.0
13 18:05 N 8 10.00 Mostly Cloudy BKN060 93.2 69.1 45% 98 30.06 0.0
13 17:45 NW 7 10.00 Partly Cloudy SCT060 93.2 68.9 45% 98 30.06 0.0
13 17:25 N 5 10.00 Fair CLR 92.7 67.8 44% 97 30.06 0.0
13 17:05 Calm 10.00 Fair CLR 92.5 68.2 45% 97 30.07 0.0
13 16:45 NE 5 10.00 Fair CLR 92.5 68 45% 97 30.07 0.0
13 16:25 Calm 10.00 Partly Cloudy SCT050 92.1 68.2 46% 96 30.07 0.0
13 16:05 NE 5 10.00 Partly Cloudy SCT050 92.1 69.6 48% 98 30.08 0.0
13 15:45 Calm 10.00 Partly Cloudy SCT048 90.3 69.3 50% 95 30.09 0.0
13 15:25 NW 7 10.00 Partly Cloudy SCT046 SCT050 91.2 69.6 49% 97 30.09 0.0
13 15:05 Calm 10.00 Mostly Cloudy BKN046 BKN050 91 69.8 50% 97 30.1 0.0
13 14:45 W 7 10.00 Mostly Cloudy BKN048 90 70.2 52% 96 30.1 0.0
13 14:25 N 7 10.00 Partly Cloudy SCT041 SCT048 90.9 70.9 52% 97 30.1 0.0
13 14:05 NE 7 10.00 Mostly Cloudy SCT038 BKN046 88 71.4 58% 94 30.11 0.0
13 13:45 Calm 10.00 Partly Cloudy SCT032 SCT040 SCT047 87.1 71.1 88 75.7 59% 93 30.11 0.0 0.02
13 13:30 NW 6 10.00 Mostly Cloudy BKN032 BKN039 BKN046 85.8 72.1 64% 92 30.12 0.0
13 13:05 N 6 10.00 Mostly Cloudy BKN027 BKN035 85.6 72.1 64% 92 30.13 0.0
13 12:45 Calm 10.00 Partly Cloudy SCT022 SCT029 SCT037 85.5 73.6 68% 93 30.14 0.0
Date Time (edt) Wind (mph) Vis. (mi.) Weather Sky Cond. Air Dwpt Max. Min. Relative Humidity Wind Chill (°F) Heat Index (°F) altimeter (in) sea level (mb) 1 hr 3 hr 6 hr
6 hour
Temperature (ºF) Pressure Precipitation (in)